Location: Albany
(35.0000°S, 118.0000°E)
Time: 16:50:58
(UTC-04:00)

Cosmos 1346 Rocket - Visible Passes

Search period start: 24 April 2018 00:00
Search period end: 04 May 2018 00:00
Orbit: 521 x 560 km, 81.2° (Epoch: 23 April)

Date Brightness Start Highest point End Pass type
(mag) Time Alt. Az. Time Alt. Az. Time Alt. Az.
24 Apr 5.8 06:26:02 10° SW 06:29:04 21° W 06:32:05 10° NW visible
25 Apr 5.9 06:18:48 10° SW 06:21:47 20° W 06:24:45 10° NW visible
26 Apr 6.0 06:11:35 10° SW 06:14:30 19° W 06:17:25 10° NW visible
27 Apr 6.0 06:04:21 10° SW 06:07:13 19° W 06:10:04 10° NW visible
28 Apr 6.0 05:57:08 10° SW 05:59:56 18° W 06:02:44 10° NW visible
28 Apr 3.1 18:11:23 10° NNW 18:15:04 42° WSW 18:18:49 10° S visible
29 Apr 6.0 05:49:54 10° SW 05:52:39 18° W 05:55:23 10° NW visible
29 Apr 6.4 16:31:25 10° E 16:31:54 10° E 16:32:23 10° E visible
29 Apr 3.2 18:04:07 10° NNW 18:07:47 40° WSW 18:11:31 10° S visible
30 Apr 6.3 16:23:44 10° E 16:24:36 11° E 16:25:28 10° ESE visible
30 Apr 3.2 17:56:51 10° NNW 18:00:30 39° WSW 18:04:13 10° S visible
01 May 6.2 16:16:11 10° ENE 16:17:18 11° E 16:18:25 10° ESE visible
01 May 3.2 17:49:36 10° NNW 17:53:13 37° WSW 17:56:54 10° S visible
02 May 6.1 16:08:41 10° ENE 16:10:01 11° E 16:11:20 10° ESE visible
02 May 3.3 17:42:20 10° NW 17:45:57 36° WSW 17:49:36 10° S visible
03 May 6.0 16:01:13 10° ENE 16:02:43 12° E 16:04:13 10° ESE visible
03 May 3.3 17:35:05 10° NW 17:38:40 35° WSW 17:42:18 10° S visible
